Weather History for Plattsmouth, NE

Change the Weather History Date:

Wednesday, August 21, 2013

  Actual Average (KOFF) Record (KOFF)
Temperature  
Mean Temperature 80 °F -  
Max Temperature 91 °F 82 °F 96 °F (2001)
Min Temperature 69 °F 63 °F 53 °F (2004)
Cooling Degree Days 15    
Growing Degree Days 30 (Base 50)    
Moisture  
Dew Point 69 °F    
Average Humidity 71    
Maximum Humidity 90    
Minimum Humidity 48    
Precipitation  
Precipitation 0.00 in - - ()
Sea Level Pressure  
Sea Level Pressure 29.99 in    
Wind  
Wind Speed 11 mph (South)    
Max Wind Speed 17 mph    
Max Gust Speed 22 mph    
Visibility 10 miles    
Events      
Averages and records for this station are not official NWS values.
T = Trace of Precipitation, MM = Missing Value Source: NWS Daily Summary

Daily Weather History Graph

Daily Weather History Graph

Search for Another Location

Airport:

Trip Planner

Search our weather history database for the weather conditions in past years. The results will help you decide how hot, cold, wet, or windy it might be!

Date:

Astronomy

Aug. 21, 2013 Rise Set
Actual Time 6:39 AM CDT 8:12 PM CDT
Civil Twilight 6:10 AM CDT 8:41 PM CDT
Nautical Twilight 5:35 AM CDT 9:16 PM CDT
Astronomical Twilight 4:58 AM CDT 9:53 PM CDT
Moon 8:21 PM CDT (8/21) 7:21 AM CDT (8/21)
Length of Visible Light 14h 30m
Length of Day
13h 33m
Waxing Gibbous, 99% of the Moon is Illuminated
Aug 21
Waxing Gibbous
Aug 28
Last Quarter
Sep 5
New
Sep 12
First Quarter
Sep 19
Full

Hourly Weather History & Observations

Time (CDT) Temp. Heat Index Dew Point Humidity Pressure Visibility Wind Dir Wind Speed Gust Speed Precip Events Conditions
12:15 AM 75.6 °F - 68.5 °F 79% 29.97 in 10.0 mi South 13.8 mph 18.4 mph N/A   Clear
12:35 AM 74.8 °F - 68.2 °F 80% 29.97 in 10.0 mi South 11.5 mph - N/A   Clear
12:55 AM 74.7 °F - 68.0 °F 80% 29.98 in 10.0 mi South 13.8 mph 17.3 mph N/A   Clear
1:15 AM 74.3 °F - 67.6 °F 80% 29.98 in 10.0 mi South 12.7 mph - N/A   Clear
1:35 AM 73.9 °F - 67.5 °F 80% 29.98 in 10.0 mi South 11.5 mph - N/A   Clear
1:55 AM 73.4 °F - 67.3 °F 81% 29.98 in 10.0 mi South 10.4 mph - N/A   Clear
2:15 AM 72.5 °F - 67.3 °F 84% 29.98 in 10.0 mi South 9.2 mph - N/A   Clear
2:35 AM 72.5 °F - 67.1 °F 83% 29.98 in 10.0 mi South 10.4 mph - N/A   Clear
2:55 AM 72.5 °F - 67.1 °F 83% 29.98 in 10.0 mi South 11.5 mph - N/A   Clear
3:15 AM 72.5 °F - 67.1 °F 83% 29.98 in 10.0 mi South 11.5 mph - N/A   Clear
3:35 AM 72.7 °F - 67.1 °F 83% 29.98 in 10.0 mi South 11.5 mph - N/A   Clear
3:55 AM 72.5 °F - 66.9 °F 83% 29.97 in 10.0 mi South 12.7 mph - N/A   Clear
4:15 AM 72.3 °F - 66.7 °F 83% 29.98 in 10.0 mi South 12.7 mph - N/A   Clear
4:35 AM 72.0 °F - 66.7 °F 84% 29.98 in 10.0 mi South 11.5 mph - N/A   Clear
4:55 AM 71.1 °F - 66.7 °F 86% 29.98 in 10.0 mi South 11.5 mph - N/A   Clear
5:15 AM 70.9 °F - 66.7 °F 87% 29.98 in 10.0 mi South 12.7 mph - N/A   Clear
5:35 AM 70.7 °F - 66.6 °F 87% 29.98 in 10.0 mi South 10.4 mph - N/A   Clear
5:55 AM 70.2 °F - 66.6 °F 88% 29.99 in 10.0 mi South 9.2 mph - N/A   Clear
6:15 AM 69.8 °F - 66.7 °F 90% 30.00 in 10.0 mi South 9.2 mph - N/A   Clear
6:35 AM 70.0 °F - 66.6 °F 89% 30.00 in 10.0 mi South 6.9 mph - N/A   Clear
6:55 AM 69.6 °F - 66.4 °F 89% 30.01 in 10.0 mi South 5.8 mph - N/A   Clear
7:15 AM 69.8 °F - 66.4 °F 89% 30.01 in 10.0 mi SSE 5.8 mph - N/A   Clear
7:35 AM 70.0 °F - 66.6 °F 89% 30.02 in 10.0 mi South 4.6 mph - N/A   Clear
7:55 AM 70.7 °F - 67.1 °F 88% 30.02 in 10.0 mi South 5.8 mph - N/A   Clear
8:15 AM 72.0 °F - 67.1 °F 85% 30.02 in 10.0 mi SSE 6.9 mph - N/A   Clear
8:35 AM 73.0 °F - 67.3 °F 82% 30.03 in 10.0 mi South 8.1 mph - N/A   Clear
8:55 AM 73.6 °F - 67.6 °F 82% 30.02 in 10.0 mi South 10.4 mph - N/A   Clear
9:15 AM 75.2 °F - 67.5 °F 77% 30.02 in 10.0 mi South 11.5 mph 17.3 mph N/A   Clear
9:35 AM 76.5 °F - 67.8 °F 75% 30.02 in 10.0 mi South 10.4 mph 17.3 mph N/A   Clear
9:55 AM 77.7 °F - 68.0 °F 72% 30.02 in 10.0 mi South 12.7 mph - N/A   Clear
10:15 AM 79.2 °F - 68.0 °F 69% 30.03 in 10.0 mi South 8.1 mph 11.5 mph N/A   Clear
10:35 AM 79.9 °F - 67.5 °F 66% 30.02 in 10.0 mi South 13.8 mph 18.4 mph N/A   Clear
10:55 AM 81.0 °F 83.6 °F 67.6 °F 64% 30.02 in 10.0 mi South 11.5 mph 16.1 mph N/A   Clear
11:15 AM 82.9 °F 85.8 °F 67.8 °F 60% 30.01 in 10.0 mi South 13.8 mph 19.6 mph N/A   Clear
11:35 AM 83.7 °F 87.0 °F 68.4 °F 60% 30.01 in 10.0 mi South 17.3 mph - N/A   Clear
11:55 AM 84.7 °F 87.9 °F 67.8 °F 57% 30.00 in 10.0 mi South 16.1 mph 21.9 mph N/A   Clear
12:15 PM 85.1 °F 87.9 °F 67.1 °F 55% 30.01 in 10.0 mi South 15.0 mph 21.9 mph N/A   Clear
12:35 PM 86.2 °F 89.4 °F 68.0 °F 54% 30.00 in 10.0 mi South 16.1 mph - N/A   Clear
12:55 PM 86.7 °F 89.9 °F 67.8 °F 53% 30.00 in 10.0 mi South 13.8 mph 19.6 mph N/A   Clear
1:15 PM 87.8 °F 91.4 °F 68.2 °F 52% 30.00 in 10.0 mi South 10.4 mph - N/A   Clear
1:35 PM 89.1 °F 92.9 °F 68.4 °F 50% 30.00 in 10.0 mi South 12.7 mph - N/A   Clear
1:55 PM 89.2 °F 93.2 °F 68.5 °F 50% 29.99 in 10.0 mi South 15.0 mph 18.4 mph N/A   Clear
2:15 PM 89.6 °F 93.4 °F 68.2 °F 49% 29.99 in 10.0 mi South 15.0 mph 20.7 mph N/A   Clear
2:35 PM 90.1 °F 94.4 °F 68.5 °F 49% 29.99 in 10.0 mi South 15.0 mph - N/A   Clear
2:55 PM 90.5 °F 94.6 °F 68.5 °F 48% 29.99 in 10.0 mi South 15.0 mph - N/A   Clear
3:15 PM 91.2 °F 96.0 °F 68.9 °F 48% 29.98 in 10.0 mi South 15.0 mph 19.6 mph N/A   Clear
3:35 PM 91.6 °F 97.2 °F 70.0 °F 49% 29.98 in 10.0 mi South 15.0 mph 20.7 mph N/A   Clear
3:55 PM 91.4 °F 96.3 °F 68.9 °F 48% 29.98 in 10.0 mi South 13.8 mph 18.4 mph N/A   Clear
4:15 PM 91.9 °F 97.9 °F 70.2 °F 49% 29.98 in 10.0 mi South 11.5 mph - N/A   Clear
4:35 PM 91.8 °F 97.5 °F 70.0 °F 49% 29.97 in 10.0 mi South 15.0 mph - N/A   Clear
4:55 PM 91.2 °F 96.0 °F 69.1 °F 48% 29.97 in 10.0 mi South 13.8 mph - N/A   Clear
5:15 PM 91.0 °F 96.1 °F 69.3 °F 49% 29.97 in 10.0 mi South 9.2 mph 18.4 mph N/A   Clear
5:35 PM 90.7 °F 96.4 °F 70.2 °F 51% 29.97 in 10.0 mi South 10.4 mph 16.1 mph N/A   Clear
5:55 PM 90.1 °F 96.3 °F 70.9 °F 53% 29.97 in 10.0 mi South 9.2 mph - N/A   Clear
6:15 PM 89.6 °F 94.7 °F 70.0 °F 52% 29.96 in 10.0 mi South 12.7 mph 16.1 mph N/A   Clear
6:35 PM 88.5 °F 94.4 °F 71.1 °F 56% 29.96 in 10.0 mi South 9.2 mph - N/A   Clear
6:55 PM 87.3 °F 92.8 °F 70.9 °F 58% 29.96 in 10.0 mi South 9.2 mph - N/A   Clear
7:15 PM 86.4 °F 92.2 °F 71.4 °F 61% 29.96 in 10.0 mi SSE 6.9 mph - N/A   Clear
7:35 PM 84.7 °F 89.7 °F 70.7 °F 63% 29.96 in 10.0 mi SSE 9.2 mph - N/A   Clear
7:55 PM 82.8 °F 86.9 °F 70.2 °F 66% 29.97 in 10.0 mi South 8.1 mph - N/A   Clear
8:15 PM 81.0 °F 84.4 °F 70.0 °F 69% 29.97 in 10.0 mi SSE 6.9 mph - N/A   Clear
8:35 PM 80.1 °F 83.2 °F 70.0 °F 71% 29.97 in 10.0 mi SSE 5.8 mph - N/A   Clear
8:55 PM 78.6 °F - 70.0 °F 75% 29.97 in 10.0 mi SSE 6.9 mph - N/A   Clear
9:15 PM 78.8 °F - 70.0 °F 74% 29.97 in 10.0 mi SSE 6.9 mph - N/A   Clear
9:35 PM 78.1 °F - 70.7 °F 78% 29.98 in 10.0 mi SSE 6.9 mph - N/A   Clear
9:55 PM 78.3 °F - 72.0 °F 81% 29.99 in 10.0 mi SSE 6.9 mph - N/A   Clear
10:15 PM 78.1 °F - 72.0 °F 81% 29.98 in 10.0 mi SSE 9.2 mph - N/A   Clear
10:35 PM 77.2 °F - 72.0 °F 84% 29.97 in 10.0 mi SSE 8.1 mph - N/A   Clear
10:55 PM 77.2 °F - 72.0 °F 84% 29.98 in 10.0 mi SSE 9.2 mph - N/A   Clear
11:15 PM 77.2 °F - 71.8 °F 83% 29.98 in 10.0 mi SSE 8.1 mph - N/A   Clear
11:35 PM 76.6 °F - 71.6 °F 84% 30.00 in 10.0 mi SSE 8.1 mph - N/A   Clear
11:55 PM 76.1 °F - 71.2 °F 85% 29.99 in 10.0 mi SSE 8.1 mph - N/A   Clear